Weather History for Astoria, OR

Change the Weather History Date:

Wednesday, September 25, 2013

  Actual Average Record
Temperature  
Mean Temperature 54 °F 57 °F  
Max Temperature 61 °F 66 °F 81 °F (1899)
Min Temperature 47 °F 48 °F 38 °F (1972)
Degree Days  
Heating Degree Days 11 8  
Month to date heating degree days 97 156  
Since 1 July heating degree days 344 437  
Cooling Degree Days 0 0  
Month to date cooling degree days 3 0  
Year to date cooling degree days 9 7  
Growing Degree Days 4 (Base 50)    
Moisture  
Dew Point 48 °F    
Average Humidity 80    
Maximum Humidity 100    
Minimum Humidity 60    
Precipitation  
Precipitation 0.13 in 0.09 in 1.02 in (1905)
Month to date precipitation 3.55 1.66  
Year to date precipitation 39.90 39.76  
Snow  
Snow 0.00 in - - ()
Month to date snowfall 0.0  
Snow Depth 0.00 in    
Sea Level Pressure  
Sea Level Pressure 29.95 in    
Wind  
Wind Speed 5 mph (SW)    
Max Wind Speed 12 mph    
Max Gust Speed 14 mph    
Visibility 10 miles    
Events Rain    
T = Trace of Precipitation, MM = Missing Value Source: NWS Daily Summary

Daily Weather History Graph

Daily Weather History Graph

Search for Another Location

Airport:

Trip Planner

Search our weather history database for the weather conditions in past years. The results will help you decide how hot, cold, wet, or windy it might be!

Date:

Astronomy

Sep. 25, 2013 Rise Set
Actual Time 7:06 AM PDT 7:06 PM PDT
Civil Twilight 6:36 AM PDT 7:36 PM PDT
Nautical Twilight 6:01 AM PDT 8:11 PM PDT
Astronomical Twilight 5:25 AM PDT 8:47 PM PDT
Moon 11:00 PM PDT (9/25) 1:34 PM PDT (9/25)
Length of Visible Light 12h 59m
Length of Day
11h 59m
Waning Gibbous, 63% of the Moon is Illuminated
Sep 25
Waning Gibbous
Sep 26
Last Quarter
Oct 4
New
Oct 11
First Quarter
Oct 18
Full

Hourly Weather History & Observations

Time (PDT) Temp. Dew Point Humidity Pressure Visibility Wind Dir Wind Speed Gust Speed Precip Events Conditions
12:55 AM 50.0 °F 48.9 °F 96% 29.87 in 10.0 mi SE 3.5 mph - 0.04 in   Overcast
1:55 AM 48.9 °F 46.9 °F 93% 29.87 in 10.0 mi SSE 4.6 mph - 0.02 in Rain Light Rain
2:33 AM 48.2 °F 48.2 °F 100% 29.88 in 2.5 mi Variable 3.5 mph - 0.05 in Rain Rain
2:36 AM 48.2 °F 48.2 °F 100% 29.88 in 3.0 mi Calm Calm - 0.06 in Rain Light Rain
2:45 AM 48.2 °F 48.2 °F 100% 29.88 in 8.0 mi Calm Calm - 0.06 in Rain Light Rain
2:55 AM 50.0 °F 48.0 °F 93% 29.88 in 10.0 mi Calm Calm - 0.06 in   Overcast
3:55 AM 48.9 °F 48.0 °F 97% 29.87 in 10.0 mi SSE 4.6 mph - 0.01 in Rain Light Rain
4:55 AM 48.9 °F 46.9 °F 93% 29.87 in 10.0 mi SSE 6.9 mph - 0.01 in Rain Light Rain
5:55 AM 48.0 °F 48.0 °F 100% 29.89 in 10.0 mi WSW 3.5 mph - 0.01 in   Mostly Cloudy
6:55 AM 48.0 °F 46.9 °F 96% 29.89 in 10.0 mi South 4.6 mph - 0.02 in   Mostly Cloudy
7:55 AM 46.9 °F 46.9 °F 100% 29.91 in 10.0 mi South 3.5 mph - N/A   Clear
8:55 AM 51.1 °F 48.9 °F 92% 29.92 in 10.0 mi ESE 4.6 mph - N/A   Clear
9:55 AM 54.0 °F 50.0 °F 86% 29.93 in 10.0 mi SE 3.5 mph - N/A   Clear
10:55 AM 57.0 °F 46.9 °F 69% 29.94 in 10.0 mi NNW 3.5 mph - N/A   Clear
11:55 AM 57.9 °F 50.0 °F 75% 29.95 in 10.0 mi NNE 5.8 mph - N/A   Scattered Clouds
12:55 PM 59.0 °F 46.9 °F 64% 29.96 in 10.0 mi NE 3.5 mph - N/A   Clear
1:55 PM 61.0 °F 46.9 °F 60% 29.97 in 10.0 mi NW 5.8 mph - N/A   Scattered Clouds
2:55 PM 60.1 °F 48.0 °F 64% 29.98 in 10.0 mi NNW 6.9 mph - N/A   Overcast
3:55 PM 59.0 °F 48.9 °F 69% 29.99 in 10.0 mi NW 6.9 mph - N/A   Overcast
4:55 PM 59.0 °F 48.0 °F 67% 29.99 in 10.0 mi NW 8.1 mph - N/A   Overcast
5:55 PM 59.0 °F 48.0 °F 67% 30.00 in 10.0 mi WNW 6.9 mph - N/A   Partly Cloudy
6:55 PM 55.9 °F 48.0 °F 75% 30.01 in 10.0 mi West 4.6 mph - N/A   Partly Cloudy
7:55 PM 53.1 °F 48.0 °F 83% 30.03 in 10.0 mi West 3.5 mph - N/A   Clear
8:55 PM 50.0 °F 46.9 °F 89% 30.03 in 10.0 mi West 3.5 mph - N/A   Clear
9:55 PM 48.9 °F 46.9 °F 93% 30.04 in 10.0 mi Calm Calm - N/A   Clear
10:55 PM 48.0 °F 46.0 °F 93% 30.04 in 10.0 mi SSE 3.5 mph - N/A   Clear
11:55 PM 46.9 °F 45.0 °F 93% 30.04 in 10.0 mi SE 4.6 mph - N/A   Clear